Temp
15 16 16 16 15 16 16 16 16 16 16 16 16 15 15 15 15 15 15 14 14 14 13 13 13 13 13 13 13 12 12 12 12 12 11 11 11 11 11 10 11 11 10
16 16 16 16 16 16 16 16 16 16 16 16 15 15 15 15 15 15 15 14 12 12 12 13 12 12 13 12 11 12 11 11 11 11 11 11 11 11 10 10 10 11 11
16 15 16 16 16 16 16 16 16 16 16 15 15 15 15 15 15 15 15 14 12 13 13 12 12 11 12 11 11 11 10 10 10 11 11 11 11 10 10 10 11 10 10
16 15 16 16 16 16 16 16 16 16 16 15 15 15 15 15 15 15 15 14 12 12 12 11 12 12 11 11 11 11 11 10 11 10 10 10 10 10 10 10 10 9 11
16 15 15 16 16 16 16 16 16 16 15 15 15 15 15 15 15 15 15 13 12 11 12 12 12 12 11 12 11 11 10 10 10 11 11 11 10 10 10 9 10 9 10
15 15 15 15 15 16 16 16 15 15 15 15 15 15 15 15 15 15 15 13 12 11 12 12 11 12 12 12 11 11 11 10 12 12 10 10 10 9 9 9 10 10 10
15 15 15 15 15 15 16 15 15 15 15 15 14 15 15 15 15 15 15 15 12 11 12 11 11 12 12 12 11 11 12 12 13 12 11 10 10 9 9 10 11 10 10
15 15 15 15 15 15 15 15 15 15 14 14 14 14 14 14 15 15 15 15 13 11 11 11 11 11 11 11 11 11 11 12 12 11 10 10 10 9 10 11 12 12 11
15 15 14 14 15 15 14 15 15 14 14 14 14 14 14 14 14 14 15 14 13 11 11 11 11 11 11 11 11 11 11 11 11 11 10 10 10 9 10 11 12 12 12
15 14 14 14 14 14 14 14 14 14 14 14 14 13 13 14 14 14 14 14 14 12 11 11 11 11 11 10 11 11 10 11 12 11 10 9 9 10 12 12 12 12 12
14 14 14 14 14 14 14 13 13 13 14 14 14 13 13 13 14 14 14 14 14 13 11 11 11 10 10 10 10 10 11 11 12 11 10 10 11 11 12 13 12 12 12
14 14 14 14 14 14 13 13 13 13 14 14 14 13 13 13 13 13 13 14 13 12 11 11 10 10 10 11 11 11 11 12 12 11 10 10 12 13 13 13 13 12 12
14 14 13 14 14 13 13 13 13 13 13 13 13 13 12 13 13 13 13 13 13 12 11 11 10 11 11 11 11 11 11 11 12 12 11 11 12 13 13 13 12 12 12
13 13 13 13 13 13 13 13 13 13 14 13 13 12 12 12 12 12 13 13 13 12 11 11 10 11 10 10 10 11 11 11 12 12 12 12 12 12 12 12 12 12 12
13 13 13 13 13 14 13 13 13 14 13 13 13 12 12 12 12 12 12 12 12 12 11 11 11 10 11 10 10 10 10 11 11 12 13 13 13 12 12 12 12 12 12
13 12 13 13 13 13 13 13 13 13 13 13 13 13 12 12 11 11 11 11 11 11 11 11 11 10 10 10 10 10 10 11 12 12 12 13 13 12 12 12 12 12 12
13 13 13 13 13 13 13 13 13 12 12 13 13 12 12 11 11 11 10 11 11 11 11 11 11 10 10 10 10 10 11 11 11 12 12 12 12 11 12 11 12 12 12
13 13 13 13 12 12 12 12 12 12 12 12 13 12 12 11 11 11 11 11 11 11 11 11 11 11 10 10 10 10 11 11 11 11 12 12 11 11 11 11 11 11 11
13 13 13 13 12 12 12 12 12 12 12 12 12 11 11 11 11 10 11 11 10 10 10 10 11 10 11 10 10 10 10 11 11 11 11 11 11 11 11 11 11 11 11
13 13 13 12 12 12 12 12 12 11 11 12 12 11 11 11 11 11 11 11 10 10 10 10 10 10 10 10 10 10 10 10 10 11 11 11 11 11 11 11 11 11 11
13 13 13 12 12 12 12 12 12 11 11 11 11 11 11 12 11 11 11 11 11 11 11 10 10 10 11 10 10 10 10 10 10 10 10 11 11 11 11 11 11 11 10
13 13 13 13 12 12 12 12 12 12 11 11 11 11 11 11 11 11 11 11 11 11 11 11 10 10 10 10 10 10 10 10 11 11 11 11 11 10 11 11 10 10 10
13 12 12 12 13 12 12 12 12 11 11 11 11 11 11 11 11 11 11 11 11 11 11 11 10 10 10 10 10 10 10 10 10 11 11 11 10 10 11 11 11 10 10
12 12 12 12 12 12 12 13 11 11 11 12 12 12 11 11 11 11 11 11 11 11 11 11 10 10 10 10 9 9 9 10 9 10 11 11 10 11 11 11 10 10 10
13 13 12 12 12 12 13 12 12 11 12 12 12 11 11 11 11 11 11 11 11 11 11 11 10 10 10 10 10 10 9 9 9 9 9 10 10 10 10 10 10 10 10
13 13 13 13 12 13 12 12 12 12 12 12 11 11 11 11 11 11 11 11 11 11 11 11 10 10 10 10 10 10 9 9 10 9 9 9 9 10 10 10 10 10 10
Height
1530 1534 1538 1539 1541 1543 1544 1545 1546 1547 1549 1550 1551 1552 1553 1553 1554 1555 1556 1556 1556 1556 1556 1557 1558 1558 1558 1559 1560 1561 1563 1562 1561 1561 1560 1560 1561 1561 1561 1562 1562 1562 1563
1528 1532 1537 1540 1542 1544 1545 1546 1547 1549 1550 1551 1553 1554 1555 1556 1556 1557 1557 1558 1558 1559 1558 1558 1560 1560 1560 1561 1563 1564 1564 1565 1563 1564 1563 1563 1563 1564 1563 1565 1565 1565 1567
1529 1532 1536 1540 1543 1544 1546 1548 1548 1550 1552 1553 1554 1555 1556 1557 1558 1557 1557 1559 1559 1560 1562 1562 1563 1563 1563 1565 1566 1566 1567 1566 1567 1567 1567 1566 1567 1567 1567 1568 1568 1569 1569
1530 1532 1536 1539 1543 1546 1547 1549 1550 1551 1553 1555 1557 1558 1559 1560 1560 1559 1559 1560 1561 1563 1564 1564 1566 1566 1567 1568 1569 1569 1569 1569 1569 1570 1569 1569 1571 1571 1571 1571 1572 1572 1571
1531 1534 1536 1539 1541 1546 1548 1550 1551 1553 1555 1557 1558 1559 1560 1561 1562 1561 1561 1562 1563 1563 1564 1565 1566 1568 1571 1571 1572 1572 1572 1571 1572 1572 1572 1572 1572 1574 1575 1575 1576 1574 1572
1532 1535 1537 1540 1542 1545 1548 1551 1553 1554 1557 1558 1559 1560 1562 1563 1564 1563 1563 1564 1565 1566 1566 1567 1568 1571 1571 1573 1573 1574 1573 1574 1574 1575 1575 1575 1576 1578 1579 1578 1577 1576 1575
1533 1536 1539 1541 1544 1546 1548 1551 1554 1555 1558 1560 1561 1562 1563 1564 1565 1565 1566 1567 1567 1569 1569 1571 1572 1573 1575 1575 1575 1576 1576 1576 1577 1577 1578 1578 1580 1582 1581 1580 1578 1579 1578
1533 1536 1540 1543 1545 1548 1550 1552 1554 1557 1559 1560 1561 1562 1564 1565 1567 1566 1567 1567 1569 1571 1573 1574 1575 1576 1577 1578 1577 1579 1578 1579 1580 1580 1580 1581 1582 1583 1583 1582 1581 1581 1580
1534 1537 1540 1543 1546 1549 1551 1553 1554 1557 1560 1562 1563 1564 1565 1567 1568 1569 1569 1569 1570 1573 1575 1577 1578 1579 1580 1580 1580 1581 1581 1582 1583 1582 1583 1584 1584 1585 1584 1584 1584 1583 1583
1535 1538 1540 1543 1546 1548 1552 1554 1556 1558 1561 1563 1564 1565 1567 1567 1569 1570 1571 1571 1573 1574 1577 1579 1580 1582 1583 1583 1583 1584 1584 1584 1585 1585 1586 1587 1586 1587 1586 1587 1586 1586 1585
1534 1537 1540 1544 1546 1549 1551 1554 1556 1559 1561 1563 1565 1567 1568 1569 1569 1571 1573 1573 1575 1576 1578 1581 1582 1582 1583 1584 1585 1585 1586 1587 1588 1587 1588 1588 1588 1588 1588 1589 1589 1588 1588
1532 1536 1540 1544 1546 1548 1551 1554 1556 1559 1561 1563 1565 1568 1569 1570 1571 1573 1574 1576 1577 1579 1581 1582 1583 1583 1584 1586 1587 1588 1588 1589 1589 1589 1589 1590 1590 1591 1592 1591 1592 1590 1591
1532 1534 1539 1543 1546 1549 1551 1554 1557 1559 1561 1564 1566 1569 1571 1571 1573 1574 1575 1576 1578 1580 1582 1583 1584 1585 1586 1587 1588 1589 1590 1591 1591 1590 1590 1592 1592 1592 1593 1594 1594 1593 1593
1531 1534 1538 1542 1546 1549 1551 1555 1558 1560 1562 1564 1566 1570 1572 1573 1574 1575 1577 1579 1581 1582 1583 1584 1585 1585 1587 1588 1589 1589 1590 1591 1592 1592 1592 1593 1594 1595 1595 1595 1595 1594 1594
1531 1535 1538 1541 1546 1549 1551 1554 1558 1561 1563 1565 1566 1569 1572 1573 1575 1576 1578 1580 1582 1584 1585 1586 1587 1586 1587 1588 1590 1591 1591 1592 1592 1593 1594 1594 1595 1595 1596 1596 1595 1595 1595
1530 1536 1538 1542 1546 1549 1552 1555 1558 1561 1564 1565 1567 1569 1572 1574 1575 1577 1578 1581 1583 1584 1585 1586 1588 1588 1587 1588 1589 1592 1593 1593 1593 1594 1595 1595 1596 1596 1596 1596 1596 1595 1595
1531 1534 1539 1540 1546 1549 1552 1555 1558 1561 1564 1566 1567 1569 1572 1574 1575 1577 1579 1581 1583 1585 1585 1586 1587 1588 1588 1589 1590 1591 1593 1594 1593 1594 1595 1595 1596 1596 1596 1596 1595 1595 1595
1531 1534 1539 1541 1544 1549 1552 1555 1558 1561 1563 1566 1567 1570 1572 1574 1575 1577 1578 1581 1582 1585 1586 1587 1587 1588 1590 1589 1590 1591 1592 1593 1594 1594 1594 1595 1595 1595 1595 1595 1595 1595 1594
1529 1534 1537 1541 1544 1548 1552 1555 1559 1562 1563 1566 1567 1569 1571 1573 1574 1576 1578 1580 1582 1584 1586 1587 1587 1588 1588 1589 1591 1591 1591 1592 1593 1593 1593 1594 1594 1594 1594 1594 1594 1593 1592
1528 1532 1536 1541 1544 1548 1551 1555 1557 1560 1563 1565 1566 1568 1571 1573 1574 1576 1577 1578 1580 1582 1584 1586 1587 1587 1589 1589 1590 1591 1591 1591 1591 1591 1591 1591 1592 1592 1592 1592 1591 1591 1590
1525 1530 1534 1538 1542 1545 1549 1552 1555 1557 1560 1563 1565 1567 1569 1571 1572 1574 1576 1577 1578 1580 1582 1585 1585 1586 1587 1588 1589 1589 1589 1588 1589 1588 1588 1588 1588 1589 1589 1589 1589 1588 1587
1522 1527 1531 1535 1538 1542 1547 1550 1553 1554 1558 1561 1564 1565 1567 1569 1570 1572 1573 1575 1576 1578 1579 1582 1583 1584 1585 1586 1587 1587 1587 1587 1586 1585 1585 1585 1585 1585 1584 1585 1584 1584 1584
1518 1523 1527 1532 1535 1540 1544 1550 1554 1555 1558 1559 1561 1562 1564 1566 1568 1570 1571 1572 1574 1575 1577 1579 1581 1581 1583 1584 1585 1586 1585 1583 1582 1582 1582 1582 1582 1582 1581 1581 1580 1580 1580
1515 1521 1525 1527 1531 1537 1539 1543 1549 1547 1550 1553 1557 1560 1563 1564 1566 1567 1570 1570 1571 1574 1574 1577 1578 1580 1580 1581 1582 1582 1583 1582 1582 1581 1579 1580 1579 1579 1580 1579 1577 1576 1575
1514 1517 1522 1525 1529 1533 1536 1538 1543 1545 1548 1552 1555 1557 1560 1562 1564 1564 1567 1568 1569 1570 1572 1574 1575 1576 1576 1577 1579 1580 1580 1580 1580 1579 1576 1577 1576 1576 1576 1575 1574 1573 1572
1510 1514 1519 1523 1526 1528 1532 1535 1539 1543 1547 1550 1552 1554 1557 1558 1560 1562 1563 1565 1566 1568 1570 1571 1572 1573 1574 1574 1575 1577 1578 1577 1577 1576 1575 1573 1571 1572 1571 1570 1569 1568 1567
Wind_Speed
19 18 17 18 20 19 19 21 21 19 19 22 22 21 22 24 24 23 21 19 17 20 21 23 25 26 26 25 25 28 28 26 26 28 30 29 28 28 27 26 27 27 26
25 22 20 20 21 20 21 22 21 19 20 22 22 23 22 22 20 19 17 16 19 23 24 26 25 25 24 25 28 27 27 25 27 28 28 26 27 26 27 26 27 26 25
23 23 22 22 22 22 22 21 20 20 21 22 21 22 22 21 17 16 14 16 21 25 26 27 27 25 25 26 25 27 27 28 27 27 24 23 27 26 25 26 25 24 24
23 24 24 24 23 23 22 21 20 21 21 21 21 21 21 16 15 14 15 17 21 25 26 27 25 26 26 23 23 24 25 25 25 25 23 27 23 25 23 24 23 23 24
25 23 24 25 25 23 21 21 21 21 21 21 22 22 18 16 14 15 15 17 21 22 26 26 26 24 21 17 19 20 23 23 24 21 23 25 24 23 22 22 22 22 22
24 24 25 25 25 24 22 21 20 21 21 21 21 21 19 16 15 14 16 18 18 22 24 26 22 23 20 19 19 18 21 21 21 22 23 24 24 21 21 21 21 21 21
24 24 24 25 24 24 23 21 21 21 19 19 19 18 11 15 15 14 13 17 20 24 26 26 22 21 18 17 13 12 18 19 21 23 23 22 21 20 20 20 20 19 19
25 25 25 24 24 23 23 22 21 20 20 18 17 14 15 15 13 14 14 15 21 24 27 25 22 20 17 14 11 16 19 20 20 22 22 21 20 19 19 19 18 18 18
24 26 25 24 24 22 22 22 22 18 17 18 17 16 15 14 14 14 15 16 20 25 26 23 21 20 16 12 13 15 18 18 19 20 20 19 18 18 17 17 17 17 17
22 25 26 25 24 23 22 20 20 20 20 18 16 14 14 15 15 14 15 16 19 25 24 20 22 19 16 15 11 10 16 16 18 19 19 17 17 16 16 16 16 16 15
24 26 26 25 25 24 23 22 21 22 16 16 15 15 17 17 16 15 15 17 22 25 23 22 21 18 16 12 8 11 13 14 14 17 17 16 15 15 15 15 14 14 13
30 28 27 26 26 26 25 25 24 21 18 18 17 18 16 16 15 16 17 18 22 25 25 22 21 18 12 11 11 11 11 11 12 15 15 14 14 13 13 13 12 12 12
31 30 28 27 27 27 27 25 24 23 21 19 17 17 16 16 15 14 16 20 23 26 27 24 19 14 12 9 10 9 8 7 11 13 13 12 12 12 11 10 10 10 10
33 31 30 28 28 26 26 24 24 23 20 18 18 14 15 16 16 15 16 20 22 26 26 23 18 14 12 8 6 6 5 6 9 10 12 11 10 9 9 7 8 8 9
33 32 30 29 27 26 27 27 25 22 18 18 17 13 15 15 16 17 18 19 20 22 22 21 18 13 11 9 7 5 5 6 8 7 7 8 9 8 6 5 5 5 6
32 31 30 29 28 28 29 28 24 18 16 15 15 15 16 16 17 17 17 16 15 15 16 16 16 14 13 10 8 6 4 4 7 7 6 6 6 5 4 3 2 2 3
32 31 31 30 27 28 28 26 23 19 15 15 16 16 17 17 17 15 15 14 14 13 13 14 15 14 14 11 9 7 5 4 5 7 7 7 6 5 4 2 2 1 2
34 32 30 27 28 29 28 25 23 18 16 18 16 16 17 16 16 17 15 13 13 12 12 12 12 12 12 10 9 8 7 6 6 7 7 8 8 7 6 6 6 5 5
34 32 31 28 34 29 27 24 22 19 18 18 17 16 17 16 17 17 16 14 14 13 11 10 11 11 12 11 11 10 10 10 9 9 9 9 8 9 9 9 8 8 9
34 34 32 31 33 32 28 23 19 17 16 17 18 17 19 18 18 19 18 17 17 15 14 14 13 13 12 11 11 11 12 12 12 12 11 11 11 11 11 11 11 11 12
32 33 34 34 34 32 30 28 25 24 20 18 18 16 16 17 17 17 18 18 17 16 15 15 15 14 13 12 11 11 11 13 14 14 14 14 13 12 12 13 13 14 14
34 33 33 34 38 36 33 30 27 24 22 19 19 18 17 17 16 15 15 15 17 17 17 16 15 15 14 13 12 11 7 12 15 15 16 16 15 15 15 15 15 15 15
37 38 36 37 35 36 29 26 25 24 22 22 22 21 21 20 18 16 14 14 16 17 16 16 15 15 15 15 15 11 6 6 5 9 12 13 12 13 11 11 13 14 14
35 34 36 36 33 34 27 29 31 32 32 28 24 21 20 20 18 17 16 15 16 16 17 15 15 15 15 16 17 18 17 13 6 6 7 9 11 12 14 15 14 13 15
33 33 37 35 35 30 27 29 32 33 30 25 23 22 20 19 18 17 17 16 15 15 15 16 16 17 17 16 18 17 16 19 19 19 20 17 16 16 17 18 18 20 17
35 35 37 35 35 36 32 31 30 29 29 26 26 25 23 21 20 19 18 17 15 15 16 15 15 16 16 15 16 17 18 18 17 18 20 20 22 20 19 18 18 19 19
Wind_Direction
162 157 154 152 148 140 136 136 131 125 123 124 123 118 116 115 115 113 110 106 111 112 114 112 109 114 114 114 113 113 105 106 103 96 92 90 89 91 90 90 89 87 83
156 156 155 153 149 142 140 137 134 131 130 128 127 122 120 116 114 112 112 111 111 106 106 105 109 114 119 119 111 108 105 107 99 95 95 98 97 91 92 92 87 87 85
160 156 155 153 150 145 143 141 137 135 135 134 132 131 127 125 122 120 115 115 109 108 111 110 109 110 112 112 115 111 108 102 98 96 99 96 94 91 90 91 90 88 87
163 156 155 153 153 149 145 144 142 140 140 137 134 132 129 125 126 122 121 117 115 117 117 116 114 110 106 105 109 109 106 105 107 106 103 95 92 90 92 91 90 90 88
162 156 154 155 154 151 149 147 145 142 141 140 138 135 129 122 119 117 112 114 120 120 122 123 118 118 119 119 109 107 109 111 106 110 102 100 104 97 96 94 91 86 83
159 156 155 156 155 152 152 149 144 142 143 142 143 137 133 120 116 116 122 122 122 123 126 129 124 122 122 115 105 111 108 108 109 103 102 98 99 100 94 92 87 85 82
157 155 154 156 154 153 151 147 146 148 150 150 152 148 134 123 117 116 119 127 124 126 131 132 126 121 117 114 120 121 119 115 110 108 102 100 98 96 92 89 85 84 83
157 153 152 153 152 152 152 152 151 149 150 154 158 154 139 130 119 116 116 118 123 131 133 134 129 123 122 122 127 138 123 116 117 111 109 103 102 96 93 89 85 81 78
159 156 155 154 154 154 153 155 153 154 158 153 151 143 141 138 128 123 119 123 127 132 135 135 128 128 126 125 129 126 121 118 117 109 107 106 101 97 93 85 80 78 74
165 163 160 160 158 157 157 159 155 153 152 154 152 155 150 141 131 122 119 120 131 139 136 132 128 126 120 116 107 104 124 122 123 119 111 106 103 101 93 87 82 78 75
170 168 164 162 160 159 158 159 158 156 156 158 162 155 144 139 132 124 122 124 138 142 141 135 130 133 133 120 100 114 124 128 131 120 116 114 110 100 92 85 80 77 75
170 168 166 164 164 163 160 157 158 160 155 152 155 153 150 142 135 132 127 129 139 146 145 141 140 141 137 125 116 109 120 127 133 127 119 116 113 105 96 89 84 79 74
171 169 168 166 166 165 162 161 161 159 158 154 152 157 156 149 142 135 132 135 143 149 151 149 150 145 145 133 123 114 112 137 153 142 129 126 118 109 102 96 89 79 73
173 170 169 170 166 166 164 163 162 163 159 157 155 158 160 155 149 142 141 140 145 150 154 155 154 146 145 138 140 147 129 147 165 155 142 137 129 122 116 103 90 82 74
175 173 172 171 170 171 169 165 166 164 161 154 154 160 172 167 157 150 147 145 148 155 162 165 163 165 167 163 158 153 138 145 168 169 158 151 148 138 130 118 95 82 79
176 176 173 168 166 165 164 164 166 167 163 164 162 161 165 166 159 154 154 155 158 159 165 172 175 176 181 180 179 182 185 164 173 180 172 161 159 156 161 141 122 85 62
178 172 175 170 174 173 172 171 172 170 178 176 165 167 170 172 171 163 167 170 167 163 163 168 172 178 189 191 208 207 203 196 192 200 201 199 197 195 204 215 239 277 292
181 179 181 180 177 173 172 173 174 180 181 179 174 174 176 174 175 174 177 177 176 177 180 179 178 180 187 201 215 224 231 227 224 221 224 228 228 235 237 242 249 261 270
184 182 182 179 170 170 173 179 185 186 179 181 178 181 184 185 185 192 193 192 192 192 197 203 198 203 200 205 217 233 245 250 242 236 235 240 241 240 246 253 258 267 271
187 187 184 180 175 178 182 183 182 186 184 187 185 182 186 188 189 194 196 197 201 203 208 213 216 207 208 209 213 219 231 243 250 251 249 249 249 251 255 260 262 266 270
194 193 188 184 184 184 183 185 189 197 193 193 194 192 193 194 192 191 195 200 204 208 212 212 210 213 212 212 219 232 237 241 244 248 255 258 257 261 261 263 265 267 270
195 197 194 194 186 191 194 193 202 202 199 198 197 200 205 207 206 201 201 205 205 207 208 213 216 217 217 223 228 239 255 254 251 250 251 254 256 261 266 269 269 271 271
200 199 199 196 195 193 186 198 208 204 200 197 197 200 203 211 213 215 212 210 209 211 216 220 223 225 232 231 234 234 234 246 274 258 253 254 255 257 263 268 272 271 272
202 202 201 192 195 193 195 203 207 201 200 205 206 201 203 206 212 219 221 218 216 218 218 224 227 230 233 238 239 240 243 258 276 284 265 259 260 266 279 281 274 275 282
205 206 200 198 197 197 201 203 206 207 208 209 209 210 212 211 213 218 220 220 220 223 228 230 232 235 238 238 243 250 253 256 260 264 278 279 279 280 283 281 279 281 281
205 202 195 206 204 202 204 205 206 208 208 209 210 213 218 216 215 216 219 223 222 225 229 233 238 241 245 243 246 251 253 258 267 269 272 282 286 286 285 281 281 282 285